Find Starlink 1784

NORAD ID: 46687 Int'l Des: 2020-073 Owner: SPXS Country: US Constellation: starlink operational
LEOCIRCULAR

リアルタイム位置

3D地球を読み込み中...

Starlink 1784について

説明を読み込み中...

次回通過

Passes for default location (London). Set your location on the main map for personalized predictions.

高度履歴

Loading altitude history...

軌道要素

1 46687U 20073T 26121.55194376 .00135322 00000-0 96207-3 0 9998
2 46687 53.0395 286.2358 0000632 132.0269 228.0802 15.72977081306194
Epoch: May 1, 2026 • Age: 7 hours

現在のステータス

高度 353.7 km
速度 7.70 km/s
衛星直下点 41.91°N, 95.11°W
打ち上げ日 Oct 18, 2020
運用期間 5.5 years
タイプ internet

技術仕様

分類 Payload
質量 260.00 kg
乾燥質量 248.00 kg
総質量 260.00 kg
長さ 0.20 m
直径 2.80 m
スパン 9.00 m
形状 Box + pan
製造者 SPXS
バスタイプ Starlink
フェーズステータス In Orbit
所有者/国 SPXS/US

Most Searched